DL1NER Weather Reports


time (UTC)temp
C
wind
direction
speed
KPH
gust
KPH
rain 1hr
cm
rain 24hr
cm
rain mn
cm
humidity
%
barometer
mb
20260903222009 18 257 4.8 9.7 0.00 0.00 0.00 62 1020.0
20260903221056 18 259 4.8 9.7 0.00 0.00 0.00 61 1020.1
20260903220009 18 241 3.2 6.4 0.00 0.00 0.00 61 1019.9
20260903215010 18 254 1.6 4.8 0.00 0.00 0.00 59 1019.8
20260903214009 18 254 3.2 6.4 0.00 0.00 0.00 59 1019.9
20260903213009 19 230 1.6 6.4 0.00 0.00 0.00 58 1019.9
20260903212009 19 230 1.6 6.4 0.00 0.00 0.00 58 1019.9
20260903211008 19 266 1.6 4.8 0.00 0.00 0.00 57 1019.9
20260903210018 19 276 3.2 4.8 0.00 0.00 0.00 56 1020.0
20260903205008 20 277 3.2 6.4 0.00 0.00 0.00 56 1020.0
20260903204009 20 277 3.2 14.5 0.00 0.00 0.00 56 1019.9
20260903203008 20 277 3.2 14.5 0.00 0.00 0.00 56 1019.9
20260903202013 20 236 1.6 6.4 0.00 0.00 0.00 56 1019.9
20260903201013 20 236 3.2 9.7 0.00 0.00 0.00 56 1019.9
20260903200013 20 228 3.2 9.7 0.00 0.00 0.00 57 1019.7
20260903195013 20 231 3.2 9.7 0.00 0.00 0.00 57 1019.5
20260903194013 20 225 3.2 6.4 0.00 0.00 0.00 57 1019.7
20260903193013 20 228 0.0 4.8 0.00 0.00 0.00 58 1019.9
20260903192013 20 220 0.0 0.0 0.00 0.00 0.00 56 1019.8
20260903191013 20 220 0.0 0.0 0.00 0.00 0.00 56 1019.8
20260903190013 20 220 0.0 3.2 0.00 0.00 0.00 56 1019.7
20260903185013 20 220 1.6 4.8 0.00 0.00 0.00 56 1019.7
20260903184013 20 219 0.0 4.8 0.00 0.00 0.00 56 1019.5
20260903183013 21 219 1.6 4.8 0.00 0.00 0.00 55 1019.5
20260903182012 21 252 0.0 4.8 0.00 0.00 0.00 55 1019.5
20260903181012 21 261 1.6 4.8 0.00 0.00 0.00 55 1019.4
20260903180012 21 262 1.6 6.4 0.00 0.00 0.00 54 1019.4
20260903175012 21 277 3.2 6.4 0.00 0.00 0.00 54 1019.4
20260903174013 21 280 4.8 11.3 0.00 0.00 0.00 54 1019.4